Location: Azul
(36.7830°S, 59.8500°W)
Time: 17:34:53
(UTC-03:00)

First-Move - Pass Details

Date: 31 October 2021
Orbit: 575 x 664 km, 97.6° (Epoch: 07 December)

Event Time Altitude Azimuth Distance (km) Brightness Sun altitude
Rises 04:12:23 0° 32° (NNE) 2,946 ? -19.1°
Reaches altitude 10° 04:14:40 10° 40° (NE) 2,056 ? -18.7°
Maximum altitude 04:18:51 39° 108° (ESE) 1,001 ? -18.1°
Drops below altitude 10° 04:23:08 10° 176° (S) 2,114 ? -17.3°
Sets 04:25:30 0° 183° (S) 3,039 ? -16.9°
